• In Schweiz
  • Länderverzeichnis
  • Für 7 Tage
  • Wassertemperatur
  • Satellitenkarten
  • Wetterkarte
  • Widgets
  • user-avatar
    Anmelden

    Stündliche Wetter Boma

    Heute, 23 September, Sonntag

    Zeit Temperatur Niederschläge Wind Luftdruck Luftfeuchtigkeit
    00:00 +21°C° 0.7 mm 0 m/S 699 mmHg 96%
    01:00 +22°C° 0 mm 1 m/S 699 mmHg 97%
    02:00 +22°C° 0.2 mm 1 m/S 699 mmHg 97%
    03:00 +20°C° 0.2 mm 0 m/S 699 mmHg 98%
    04:00 +20°C° 0.2 mm 0 m/S 699 mmHg 98%
    05:00 +20°C° 0.2 mm 0 m/S 699 mmHg 98%
    06:00 +20°C° 0.2 mm 0 m/S 700 mmHg 97%
    07:00 +20°C° 0.2 mm 0 m/S 700 mmHg 97%
    08:00 +24°C° 0.1 mm 1 m/S 701 mmHg 90%
    09:00 +26°C° 0.1 mm 1 m/S 701 mmHg 83%
    10:00 +27°C° 0.1 mm 1 m/S 701 mmHg 76%
    11:00 +29°C° 0.2 mm 1 m/S 701 mmHg 69%
    12:00 +31°C° 0.2 mm 1 m/S 700 mmHg 62%
    13:00 +31°C° 0.2 mm 0 m/S 700 mmHg 55%
    14:00 +30°C° 0.1 mm 0 m/S 699 mmHg 56%
    15:00 +30°C° 0.1 mm 0 m/S 699 mmHg 58%
    16:00 +29°C° 0.1 mm 0 m/S 698 mmHg 59%
    17:00 +27°C° 0.3 mm 0 m/S 698 mmHg 67%
    18:00 +25°C° 0.3 mm 0 m/S 698 mmHg 75%
    19:00 +23°C° 0.3 mm 0 m/S 699 mmHg 83%
    20:00 +22°C° 0.7 mm 0 m/S 699 mmHg 87%
    21:00 +22°C° 0.7 mm 0 m/S 699 mmHg 91%
    22:00 +21°C° 0.7 mm 0 m/S 700 mmHg 94%
    23:00 +21°C° 0.7 mm 0 m/S 700 mmHg 96%

    Morgen, 24 September, Montag

    Zeit Temperatur Niederschläge Wind Luftdruck Luftfeuchtigkeit
    00:00 +23°C° 0.7 mm 1 m/S 699 mmHg 97%
    01:00 +22°C° 0.7 mm 1 m/S 699 mmHg 98%
    02:00 +22°C° 0.2 mm 1 m/S 699 mmHg 98%
    03:00 +22°C° 0.2 mm 1 m/S 699 mmHg 98%
    04:00 +22°C° 0.2 mm 1 m/S 699 mmHg 99%
    05:00 +22°C° 0.7 mm 1 m/S 700 mmHg 98%
    06:00 +23°C° 0.7 mm 1 m/S 700 mmHg 98%
    07:00 +23°C° 0.7 mm 1 m/S 700 mmHg 98%
    08:00 +24°C° 1.1 mm 1 m/S 701 mmHg 95%
    09:00 +25°C° 1.1 mm 1 m/S 701 mmHg 93%
    10:00 +23°C° 1.1 mm 0 m/S 702 mmHg 90%
    11:00 +26°C° 1 mm 1 m/S 701 mmHg 86%
    12:00 +27°C° 1 mm 1 m/S 700 mmHg 81%
    13:00 +28°C° 1 mm 1 m/S 700 mmHg 77%
    14:00 +28°C° 0.3 mm 1 m/S 699 mmHg 75%
    15:00 +29°C° 0.3 mm 1 m/S 699 mmHg 73%
    16:00 +29°C° 0.3 mm 1 m/S 698 mmHg 71%
    17:00 +27°C° 0.5 mm 1 m/S 698 mmHg 78%
    18:00 +26°C° 0.5 mm 1 m/S 699 mmHg 85%
    19:00 +24°C° 0.5 mm 1 m/S 699 mmHg 91%
    20:00 +24°C° 1.3 mm 1 m/S 700 mmHg 94%
    21:00 +23°C° 1.3 mm 1 m/S 700 mmHg 96%
    22:00 +23°C° 1.3 mm 1 m/S 701 mmHg 98%
    23:00 +23°C° 0.4 mm 1 m/S 700 mmHg 98%

    übermorgen, 25 September, Dienstag

    Zeit Temperatur Niederschläge Wind Luftdruck Luftfeuchtigkeit
    00:00 +22°C° 0.4 mm 1 m/S 700 mmHg 98%
    01:00 +22°C° 0.4 mm 1 m/S 700 mmHg 98%
    02:00 +22°C° 0.2 mm 1 m/S 700 mmHg 99%
    03:00 +22°C° 0.2 mm 1 m/S 700 mmHg 99%
    04:00 +22°C° 0.2 mm 1 m/S 699 mmHg 99%
    05:00 +20°C° 0.2 mm 0 m/S 700 mmHg 99%
    06:00 +20°C° 0.2 mm 0 m/S 700 mmHg 99%
    07:00 +20°C° 0.2 mm 0 m/S 701 mmHg 99%
    08:00 +21°C° 0.1 mm 0 m/S 701 mmHg 96%
    09:00 +22°C° 0.1 mm 0 m/S 702 mmHg 93%
    10:00 +25°C° 0.1 mm 1 m/S 702 mmHg 90%
    11:00 +26°C° 0 mm 1 m/S 701 mmHg 80%
    12:00 +28°C° 0 mm 1 m/S 701 mmHg 70%
    13:00 +30°C° 0 mm 1 m/S 700 mmHg 60%
    14:00 +30°C° 0 mm 1 m/S 700 mmHg 61%
    15:00 +30°C° 0 mm 1 m/S 699 mmHg 62%
    16:00 +28°C° 0 mm 0 m/S 699 mmHg 63%
    17:00 +26°C° 0.2 mm 0 m/S 699 mmHg 72%
    18:00 +24°C° 0.2 mm 0 m/S 699 mmHg 80%
    19:00 +22°C° 0.2 mm 0 m/S 699 mmHg 89%
    20:00 +22°C° 0.4 mm 0 m/S 699 mmHg 91%
    21:00 +21°C° 0.4 mm 0 m/S 700 mmHg 93%
    22:00 +21°C° 0.4 mm 0 m/S 700 mmHg 95%
    23:00 +20°C° 0.3 mm 0 m/S 700 mmHg 96%

    26 September, Mittwoch

    Zeit Temperatur Niederschläge Wind Luftdruck Luftfeuchtigkeit
    00:00 +20°C° 0.3 mm 0 m/S 699 mmHg 97%
    01:00 +19°C° 0.3 mm 0 m/S 699 mmHg 98%
    02:00 +19°C° 0.2 mm 0 m/S 699 mmHg 98%
    03:00 +19°C° 0.2 mm 0 m/S 699 mmHg 98%
    04:00 +19°C° 0.2 mm 0 m/S 699 mmHg 99%
    05:00 +19°C° 0 mm 0 m/S 699 mmHg 98%
    06:00 +20°C° 0 mm 0 m/S 700 mmHg 98%
    07:00 +20°C° 0 mm 0 m/S 701 mmHg 97%
    08:00 +21°C° 0.1 mm 0 m/S 701 mmHg 93%
    09:00 +23°C° 0.1 mm 0 m/S 701 mmHg 89%
    10:00 +26°C° 0.1 mm 1 m/S 701 mmHg 84%
    11:00 +28°C° 0.3 mm 1 m/S 701 mmHg 75%
    12:00 +28°C° 0.3 mm 0 m/S 700 mmHg 66%
    13:00 +31°C° 0.3 mm 0 m/S 699 mmHg 56%
    14:00 +30°C° 0.5 mm 0 m/S 699 mmHg 58%
    15:00 +29°C° 0.5 mm 0 m/S 699 mmHg 60%
    16:00 +31°C° 0.5 mm 1 m/S 698 mmHg 62%
    17:00 +26°C° 1.5 mm 0 m/S 698 mmHg 72%
    18:00 +24°C° 1.5 mm 0 m/S 699 mmHg 83%
    19:00 +22°C° 1.5 mm 0 m/S 699 mmHg 94%
    20:00 +21°C° 1.6 mm 0 m/S 699 mmHg 95%
    21:00 +21°C° 1.6 mm 0 m/S 700 mmHg 95%
    22:00 +21°C° 1.6 mm 0 m/S 700 mmHg 96%
    23:00 +23°C° 0.1 mm 1 m/S 700 mmHg 97%

    27 September, Donnerstag

    Zeit Temperatur Niederschläge Wind Luftdruck Luftfeuchtigkeit
    00:00 +22°C° 0.1 mm 1 m/S 699 mmHg 97%
    01:00 +22°C° 0.1 mm 1 m/S 699 mmHg 98%
    02:00 +22°C° 0 mm 1 m/S 699 mmHg 98%
    03:00 +22°C° 0 mm 1 m/S 698 mmHg 98%
    04:00 +19°C° 0 mm 0 m/S 698 mmHg 98%
    05:00 +20°C° 0 mm 0 m/S 699 mmHg 98%
    06:00 +20°C° 0 mm 0 m/S 700 mmHg 98%
    07:00 +20°C° 0 mm 0 m/S 700 mmHg 97%
    08:00 +22°C° 0 mm 0 m/S 701 mmHg 89%
    09:00 +26°C° 0 mm 1 m/S 701 mmHg 82%
    10:00 +28°C° 0 mm 1 m/S 701 mmHg 74%
    11:00 +28°C° 0.6 mm 1 m/S 700 mmHg 73%
    12:00 +29°C° 0.6 mm 1 m/S 699 mmHg 71%
    13:00 +30°C° 0.6 mm 1 m/S 699 mmHg 70%
    14:00 +29°C° 1.6 mm 1 m/S 698 mmHg 75%
    15:00 +29°C° 1.6 mm 1 m/S 698 mmHg 80%
    16:00 +26°C° 1.6 mm 0 m/S 698 mmHg 84%
    17:00 +24°C° 1.6 mm 0 m/S 698 mmHg 88%
    18:00 +25°C° 1.6 mm 1 m/S 699 mmHg 92%
    19:00 +23°C° 1.6 mm 1 m/S 700 mmHg 96%
    20:00 +23°C° 0.1 mm 1 m/S 700 mmHg 97%
    21:00 +20°C° 0.1 mm 0 m/S 700 mmHg 97%
    22:00 +20°C° 0.1 mm 0 m/S 700 mmHg 97%
    23:00 +20°C° 0 mm 0 m/S 700 mmHg 98%

    28 September, Freitag

    Zeit Temperatur Niederschläge Wind Luftdruck Luftfeuchtigkeit
    00:00 +22°C° 0 mm 1 m/S 699 mmHg 98%
    01:00 +22°C° 0 mm 1 m/S 699 mmHg 98%
    02:00 +22°C° 0 mm 1 m/S 699 mmHg 98%
    03:00 +22°C° 0 mm 1 m/S 699 mmHg 98%
    04:00 +21°C° 0 mm 1 m/S 699 mmHg 98%
    05:00 +22°C° 0 mm 1 m/S 699 mmHg 98%
    06:00 +22°C° 0 mm 1 m/S 700 mmHg 98%
    07:00 +20°C° 0 mm 0 m/S 700 mmHg 97%
    08:00 +24°C° 0 mm 1 m/S 700 mmHg 87%
    09:00 +26°C° 0 mm 1 m/S 701 mmHg 77%
    10:00 +29°C° 0 mm 1 m/S 701 mmHg 67%
    11:00 +30°C° 0.3 mm 1 m/S 701 mmHg 64%
    12:00 +31°C° 0.3 mm 1 m/S 700 mmHg 62%
    13:00 +32°C° 0.3 mm 1 m/S 699 mmHg 60%
    14:00 +30°C° 0.3 mm 0 m/S 699 mmHg 59%
    15:00 +29°C° 0.3 mm 0 m/S 698 mmHg 59%
    16:00 +29°C° 0.3 mm 0 m/S 698 mmHg 58%
    17:00 +27°C° 0.3 mm 0 m/S 698 mmHg 68%
    18:00 +26°C° 0.3 mm 1 m/S 699 mmHg 77%
    19:00 +24°C° 0.3 mm 1 m/S 699 mmHg 87%
    20:00 +22°C° 0.1 mm 0 m/S 699 mmHg 89%
    21:00 +21°C° 0.1 mm 0 m/S 699 mmHg 92%
    22:00 +21°C° 0.1 mm 0 m/S 699 mmHg 94%
    23:00 +20°C° 0 mm 0 m/S 699 mmHg 95%
    Mehr zeigen